Regional Weather Roundup
Issued by NWS

Home | Current Version | Previous Version | Graphics & Text | Print | Product List | Glossary On
Versions: 1 2 3 4 5 6 7 8 9 10 11 12 13 14 15 16 17 18 19 20 21 22 23 24 25 26 27 28 29 30 31 32 33 34 35 36 37 38 39 40 41 42 43 44 45 46 47 48 49 50
187
ASUS43 KDMX 250406
RWRIA

WEATHER ROUNDUP FOR IOWA
NATIONAL WEATHER SERVICE DES MOINES IA
1100 PM CDT FRI MAR 24 2017

NOTE: "FAIR" INDICATES FEW OR NO CLOUDS BELOW 12,000 FEET WITH NO
SIGNIFICANT WEATHER AND/OR OBSTRUCTIONS TO VISIBILITY.

* - THESE STATIONS ARE NOT NWS STATIONS...THUS NOT UNDER NWS
QUALITY CONTROL.  THEY ALSO DO NOT REPORT WEATHER SUCH
AS PRECIPITATION OR FOG.

IAZ001>003-012>014-020>022-031>034-043>046-250500-
   NORTHWEST IOWA

CITY           SKY/WX    TMP DP  RH WIND       PRES   REMARKS
CARROLL *      LGT RAIN  41  41 100 NE15G21   30.03R
CHEROKEE *     CLOUDY    40  39  95 NE13      30.07R FOG     WCI  33
LE MARS *      CLOUDY    39  37  93 N13       30.10R WCI  32
ORANGE CITY *  CLOUDY    37  37 100 NE15G21   30.08F FOG     WCI  28
SHELDON *      CLOUDY    37  37 100 NE20      30.08F FOG     WCI  27
SIOUX CITY     LGT RAIN  41  39  93 NE12      30.08R FOG
SPENCER        CLOUDY    39  37  92 N18       30.07F WCI  30
STORM LAKE *   CLOUDY    39  39 100 NE22      30.04S FOG     WCI  29
$$

IAZ055>058-069>071-079>083-090>094-250500-
   SOUTHWEST IOWA

CITY           SKY/WX    TMP DP  RH WIND       PRES   REMARKS
ATLANTIC *     HVY RAIN  41  41 100 NE17      29.98S
AUDUBON *      RAIN      39  37  93 NE10G18   30.01S WCI  32
CLARINDA *     CLOUDY    45  45 100 NE17G24   29.95F FOG
COUNCIL BLFS * LGT RAIN  41  41 100 N20G25    29.97F
CRESTON *      CLOUDY    43  43 100 NE25      29.94S
HARLAN  *      LGT RAIN  41  41 100 NE14G23   30.04S
LAMONI         LGT RAIN  47  46  97 NE18      29.91S FOG
RED OAK *      RAIN      43  43 100 NE20G29   29.95F
SHENANDOAH *   HVY RAIN  45  43  93 NE14G23   29.96F
$$

IAZ047>049-059>061-072>074-084-250500-
   CENTRAL IOWA

CITY           SKY/WX    TMP DP  RH WIND       PRES   REMARKS
AMES           CLOUDY    42  42 100 NE12      30.01S
ANKENY *       CLOUDY    43  41  93 NE13G20   30.00F
BOONE *        CLOUDY    41  41 100 NE15      30.00S
CHARITON *     CLOUDY    46  45  93 N16G23    29.93S FOG
DES MOINES     CLOUDY    44  42  93 NE18G26   29.97F
GRINNELL*      DRIZZLE   43  41  94 NE17G23   30.00R
MARSHALLTOWN   CLOUDY    42  40  92 NE15      30.00S
NEWTON *       CLOUDY    43  41  93 NE16G24   29.98F FOG
PELLA *        RAIN      44  44  99 NE16G23   29.98S
PERRY *        CLOUDY    42  40  93 NE13      30.02R
$$

IAZ004>006-015-016-023>025-035-036-250500-
   NORTH CENTRAL IOWA

CITY           SKY/WX    TMP DP  RH WIND       PRES   REMARKS
ALGONA *       CLOUDY    41  41 100 NE16      30.06S
CLARION *      CLOUDY    41  41 100 NE15      30.06R
ESTHERVILLE    CLOUDY    37  37 100 N15       30.09S WCI  28
FORT DODGE *   CLOUDY    39  36  87 NE15      30.05F WCI  31
MASON CITY     CLOUDY    39  37  92 NE15      30.07F WCI  31
FOREST CITY *  CLOUDY    39  37  93 NE10G20   30.07S WCI  32
WEBSTER CITY * LGT RAIN  41  39  93 NE17      30.02R
IOWA FALLS *   CLOUDY    41  40  95 NE14G21   30.05R
$$

IAZ007>011-017>019-026>030-037>042-050>054-066-250500-
   NORTHEAST IOWA

CITY           SKY/WX    TMP DP  RH WIND       PRES   REMARKS
CEDAR RAPIDS   LGT RAIN  47  47 100 NE14      29.99R FOG
CHARLES CITY * CLOUDY    39  39 100 NE17      30.05F WCI  30
CLINTON *      LGT RAIN  49  48  97 NE21      29.99F FOG
DECORAH *      CLOUDY    39  37  93 NE9G17    30.07S WCI  33
DUBUQUE        CLOUDY    41  40  96 NE15      30.04R FOG
MONTICELLO *   CLOUDY    45  43  93 NE15G24   30.02R FOG
OELWEIN *      CLOUDY    41  39  93 NE18G28   30.02F
WATERLOO       CLOUDY    41  38  89 NE15      30.03S
$$

IAZ064-065-067-068-078-250500-
   EAST CENTRAL IOWA

CITY           SKY/WX    TMP DP  RH WIND       PRES   REMARKS
DAVENPORT      LGT RAIN  54  53  97 N3        30.01R FOG
IOWA CITY      LGT RAIN  55  53  93 NE5       30.00R FOG
MUSCATINE *    CLOUDY    55  54  94 E6        29.97F FOG
QUAD CITIES    LGT RAIN  56  54  93 N8        29.98F FOG
$$

IAZ062-063-075>077-085>089-095>099-250500-
   SOUTHEAST IOWA

CITY           SKY/WX    TMP DP  RH WIND       PRES   REMARKS
BURLINGTON     CLOUDY    55  55 100 E8        29.94F FOG
FAIRFIELD *    CLOUDY    54  54 100 N10       29.93F FOG
FORT MADISON * CLOUDY    55  54  94 E7        29.95R FOG
KEOKUK *       CLOUDY    55  55 100 E7        29.95R FOG
OSKALOOSA *    CLOUDY    47  47  98 NE16      29.96S FOG
CENTERVILLE *  MOCLDY    55  55 100 CALM      29.92S
OTTUMWA        CLOUDY    50  50 100 NE16      29.93F FOG
WASHINGTON *   CLOUDY    54  54 100 N9        29.97S FOG
$$

ABBREVIATIONS USED IN REMARKS
   TC - TEMPERATURES IN CELSIUS
  WCI - WIND CHILL INDEX
   HX - HEAT INDEX
  VSB - VISIBILITY
$$





USA.gov is the U.S. government's official web portal to all federal, state and local government web resources and services.